Other Public Products
Issued by NWS Grand Forks, ND

Home | Current Version | Previous Version | Graphics & Text | Print | Product List | Glossary On
Versions: 1 2 3 4 5 6 7 8 9 10 11 12 13 14 15 16 17 18 19 20 21 22 23 24 25 26 27 28 29 30 31 32 33 34 35 36 37 38 39 40 41 42 43 44 45 46 47 48 49 50
000
FPUS83 KFGF 062031
OPUFGF
PRAIRIE TO PINES WEATHER ROUNDUP
NATIONAL WEATHER SERVICE EASTERN NORTH DAKOTA/GRAND FORKS ND
200 PM CST FRI MAR 06 2015

 **SATELLITE DATA USED TO AUGMENT SKY COVER AT AUTOMATED STATIONS**
 *****  WEATHER ACROSS EASTERN NORTH DAKOTA  *****

CITY           SKY/WX    TMP DP  RH WIND       PRES   REMARKS
GRAND FORKS    PTSUNNY   37  16  42 W9        30.03F
GRAND FORKS AF MOSUNNY   38  15  38 W8        30.02F
GRAND CITY NWS   N/A     37 N/A N/A W5          N/A
BUXTON           N/A     38  18  45 SW8         N/A
DEVILS LAKE    MOSUNNY   34  21  60 SW13      29.99F WCI  25
FARGO          MOSUNNY   37  19  48 W9        30.06F
WAHPETON ARPT  PTCLDY    34  18  51 NW10      30.08F
$$

 *****  WEATHER ACROSS CENTRAL AND WESTERN NORTH DAKOTA  *****

CITY           SKY/WX    TMP DP  RH WIND       PRES   REMARKS
JAMESTOWN      SUNNY     36  19  50 W10       30.04F
BISMARCK       CLOUDY    41  17  38 SW9       30.06F
MINOT          CLOUDY    35  20  54 S14G25    29.95F
MINOT AFB      PTSUNNY   34  25  68 SW15      29.93F WCI  25
GARRISON         N/A     38  22  52 SW13      29.99F
WILLISTON      PTSUNNY   45  27  49 SW14      29.96F
DICKINSON      PTSUNNY   53  20  27 W15       29.97F
HETTINGER      MOSUNNY   55  16  21 W23G30    30.02F
$$

 *****  OTHER OBSERVATIONS NORTHEAST NORTH DAKOTA  *****

CITY           SKY/WX    TMP DP  RH WIND       PRES   REMARKS
WALHALLA         N/A     34  19  55 SW10G16   29.97F
LANGDON        NOT AVBL
CAVALIER       MOCLDY    36  19  51 SW9       29.98F
GRAFTON        NOT AVBL
CANDO          CLOUDY    32  23  69 SW18      29.97F WCI  20
FORT TOTTEN    NOT AVBL
ROLLA          FAIR      28  19  69 SW18      29.93F WCI  16
RUGBY          FAIR      32  23  69 SW14      29.96F WCI  22
 ***** THE ABOVE OBSERVATIONS ARE NON NWS ARE NOT QUALITY
        CONTROLLED AND MAY MIS-REPORT RAIN FOR SNOW...
$$

 *****  OTHER OBSERVATIONS SOUTHEAST NORTH DAKOTA *****

CITY           SKY/WX    TMP DP  RH WIND       PRES   REMARKS
COOPERSTOWN    NOT AVBL
VALLEY CITY    FAIR      36  23  60 W10       30.04F
OAKES            N/A     36  23  60 W9        30.07F
GWINNER        CLEAR     37  23  56 W13       30.08F
SHEYENNE NWR     N/A     36  20  52 W7        29.95S
BUFFALO        NOT AVBL
WYNDMERE         N/A     36  21  55 NW9         N/A
 ***** THE ABOVE OBSERVATIONS ARE NON NWS ARE NOT QUALITY
       CONTROLLED AND MAY MIS-REPORT RAIN FOR SNOW...
$$

  *****  WEATHER ACROSS NORTHERN MINNESOTA  *****

CITY           SKY/WX    TMP DP  RH WIND       PRES   REMARKS
FLAG ISLAND    SUNNY     32  10  40 W9        29.92F WCI  24
WARROAD        SUNNY     30  18  59 SW9       29.97F WCI  22
ROSEAU         MOSUNNY   30  18  59 SW12G17   29.98F WCI  21
HALLOCK        MOSUNNY   32  21  64 SW12      30.00F WCI  23
THF RVR FALLS  SUNNY     30  19  64 SW13      30.03F WCI  20
HALSTAD          N/A     35  16  45 NW9         N/A
FOSSTON        SUNNY     30  16  55 W8        30.03F WCI  23
BAUDETTE       SUNNY     29  12  49 W10       29.95F WCI  20
WASKISH        SUNNY     30  18  59 SW13      29.98F WCI  20
CROOKSTON      SUNNY     34  18  51 W6        30.05F
$$
  *****  WEATHER ACROSS CENTRAL AND WEST MINNESOTA  *****

CITY           SKY/WX    TMP DP  RH WIND       PRES   REMARKS
BEMIDJI        SUNNY     29  15  54 NW13      30.00F WCI  19
PARK RAPIDS    SUNNY     32  12  43 NW15      30.00F WCI  22
WADENA         SUNNY     30  16  55 NW13      30.03F WCI  20
DETROIT LAKES  SUNNY     32  19  59 NW12      30.04F WCI  23
MOORHEAD       SUNNY     37  18  44 NW8       30.07F
FERGUS FALLS   MOSUNNY   34  18  51 NW12      30.09F
ELBOW LAKE     FAIR      30  19  63 NW10      30.07F WCI  21
MORRIS MN      SUNNY     30  19  64 W14       30.08F WCI  20
STAPLES        SUNNY     30  14  51 W13       30.02F WCI  20
WHEATON        PTSUNNY   32  18  55 NW9       30.11F WCI  24
$$
  *****  WEATHER ELSEWHERE ACROSS MINNESOTA  *****

CITY           SKY/WX    TMP DP  RH WIND       PRES   REMARKS
DULUTH         SUNNY     31  11  43 NW16      29.93F WCI  20
INTRNTL FALLS  SUNNY     28  10  46 NW15      29.94F WCI  16
ELY            SUNNY     30   7  37 NW9G24    29.89F WCI  22
CLOQUET        SUNNY     30   9  40 NW14G23   29.95S WCI  20
BRAINERD       SUNNY     31  13  47 W12       30.01F WCI  22
HIBBING        SUNNY     30  12  47 NW14      29.93F WCI  19
ALEXANDRIA     SUNNY     31  14  49 NW13      30.05F WCI  21
SAINT CLOUD    SUNNY     33  15  47 NW12      30.03F WCI  24
MINNEAPOLIS    MOSUNNY   38  18  44 NW10G17   30.03F
$$

  *****  WEATHER ACROSS SOUTH DAKOTA  *****

CITY           SKY/WX    TMP DP  RH WIND       PRES   REMARKS
SIOUX FALLS    CLOUDY    44  23  43 NW12      30.11F
BROOKINGS      NOT AVBL
WATERTOWN      PTSUNNY   32  19  58 W9        30.08F WCI  24
HURON          MOSUNNY   39  20  46 VRB5      30.13F
SISSETON         N/A     35  21  56 W12       30.09F
ABERDEEN       MOSUNNY   40  21  46 NW7       30.11F
MITCHELL       MOSUNNY   47  19  33 NW9       30.14F
PIERRE         MOSUNNY   49  21  33 VRB3      30.08F
MOBRIDGE       PTSUNNY   44  19  36 S6        30.05F
RAPID CITY     MOSUNNY   57  18  21 N15       30.10F
$$

  *****  SOME WEATHER IN NEARBY STATES *****

CITY           SKY/WX    TMP DP  RH WIND       PRES   REMARKS
GLASGOW MT     CLOUDY    53  23  31 NW14      30.02F
GREAT FALLS MT MOSUNNY   56  19  23 W23G32    30.15F
CHEYENNE WY    SUNNY     47  14  26 W14G22    30.25F
SCOTTSBLUFF NE SUNNY     57  16  20 W18G24    30.21F
OMAHA NE       MOSUNNY   60  19  20 SW10      30.13F
DES MOINES IA  MOSUNNY   52  21  29 SW13      30.15F
DAVENPORT IA   SUNNY     32  18  56 SW14      30.20F WCI  22
CHICAGO IL     MOSUNNY   25  11  55 S17       30.21F WCI  12
EAU CLAIRE WI  SUNNY     30  14  51 SW12      30.02F WCI  20
LA CROSSE WI   SUNNY     32  18  56 S14       30.06F WCI  22
$$

  *****  SOME NATIONAL WEATHER *****

CITY           SKY/WX    TMP DP  RH WIND       PRES   REMARKS
LA GUARDIA NY  SUNNY     27   5  39 CALM      30.45F
RALEIGH NC     MOSUNNY   36  10  34 VRB5G16   30.43F
ATLANTA GA     PTSUNNY   49  31  49 NW9       30.38F
NEW ORLEANS LA CLOUDY    50  18  28 N15       30.44F
OKLAHOMA CITY  SUNNY     55  24  30 SW17G24   30.41F
ALBUQUERQUE NM SUNNY     53  12  19 CALM      30.35F
SALT LAKE CITY MOSUNNY   53  23  31 N5        30.43F
LOS ANGELES CA SUNNY     78  18  10 S3        30.08F
BOISE ID       SUNNY     53  23  31 NW5       30.43F
SEATTLE WA     PTSUNNY   54  40  59 W5        30.43S
$$

*** WEATHER ACROSS MANITOBA...SASKATCHEWAN AND ONTARIO ***
                ***ONTARIO***

CITY           SKY/WX    TMP DP  RH WIND       PRES   REMARKS
GERALDTON      MOSUNNY   21   7  53 W14       29.73F WCI   8
THUNDER BAY    MOSUNNY   30  10  43 NW15G23   29.83F WCI  19
SIOUX LOOKOUT  MOSUNNY   25   7  46 NW17      29.83F WCI  11
TORONTO        PTSUNNY   21   7  53 SW16      30.31F WCI   7
BIG TROUT LK   PTSUNNY   10   0  61 N14G21    29.75R WCI  -5
PICKLE LAKE    PTSUNNY   23   3  42 W18G25    29.71S WCI   9
DRYDEN         SUNNY     27  10  50 W18G25    29.86F WCI  13
KENORA         MOSUNNY   30   9  40 W12       29.89F WCI  21
$$
                *** MANITOBA***

CITY           SKY/WX    TMP DP  RH WIND       PRES   REMARKS
BRANDON        CLOUDY    30  21  69 SW16      29.88F WCI  19
DAUPHIN        PTSUNNY   36  25  64 W20G31    29.80F
ISLAND LAKE    PTSUNNY   12   0  57 W9        29.81F WCI   0
PILOT MOUND      N/A     30  23  74 SW17        N/A  WCI  18
THE PAS        CLOUDY    25  19  80 SE7       29.73F WCI  17
THOMPSON       FLURRIES  10  -4  52 N9        29.81F WCI  -2
WINNIPEG       PTSUNNY   30  19  64 SW14      29.95F WCI  20
LYNN LAKE      MOSUNNY   12   3  67 N6        29.80R WCI   3
CHURCHILL      CRYSTALS  -9 -17  70 W9        29.87R WCI -27
GILLAM         MOSUNNY    1 -11  55 W7        29.84S WCI -11
$$
                ***SASKATCHEWAN***

CITY           SKY/WX    TMP DP  RH WIND       PRES   REMARKS
ESTEVAN        MOSUNNY   37  28  70 SW14      29.90F
KINDERSLEY     MOSUNNY   39  30  70 NW15G22   29.98R
LLOYDMINSTER   CLOUDY    37  32  81 NW16G23   29.95R
PRINCE ALBERT  MOSUNNY   39  32  75 NW22      29.80R
REGINA         PTSUNNY   37  32  81 W20       29.86S


USA.gov is the U.S. government's official web portal to all federal, state and local government web resources and services.